TimeEST,TemperatureF,Dew PointF,Humidity,Sea Level PressureIn,VisibilityMPH,Wind Direction,Wind SpeedMPH,Gust SpeedMPH,PrecipitationIn,Events,Conditions,WindDirDegrees,DateUTC
12:51 AM,35.1,35.1,100,29.96,0.2,Calm,Calm,-,N/A,Fog,Fog,0,2012-12-09 05:51:00
1:09 AM,35.6,35.6,100,29.96,0.2,Calm,Calm,-,N/A,Fog,Fog,0,2012-12-09 06:09:00
1:18 AM,33.8,33.8,100,29.96,0.2,Calm,Calm,-,N/A,Fog,Fog,0,2012-12-09 06:18:00
1:51 AM,33.1,33.1,100,30.00,0.2,Calm,Calm,-,N/A,Fog,Fog,0,2012-12-09 06:51:00
2:51 AM,33.1,33.1,100,30.02,0.2,Calm,Calm,-,N/A,Fog,Fog,0,2012-12-09 07:51:00
3:43 AM,32.0,32.0,100,30.03,0.5,Calm,Calm,-,N/A,Fog,Fog,0,2012-12-09 08:43:00
3:51 AM,30.9,30.9,100,30.04,0.2,Calm,Calm,-,N/A,Fog,Light Freezing Fog,0,2012-12-09 08:51:00
4:22 AM,30.2,30.2,100,30.04,0.5,Calm,Calm,-,N/A,Fog,Light Freezing Fog,0,2012-12-09 09:22:00
4:51 AM,28.0,28.0,100,30.09,1.8,Calm,Calm,-,N/A,,Partly Cloudy,0,2012-12-09 09:51:00
4:55 AM,28.4,28.4,100,30.07,3.0,Calm,Calm,-,N/A,,Partly Cloudy,0,2012-12-09 09:55:00
5:06 AM,28.4,28.4,100,30.08,1.8,Calm,Calm,-,N/A,,Clear,0,2012-12-09 10:06:00
5:25 AM,28.4,28.4,100,30.10,1.0,Calm,Calm,-,N/A,,Clear,0,2012-12-09 10:25:00
5:30 AM,28.4,28.4,100,30.10,2.5,Calm,Calm,-,N/A,,Clear,0,2012-12-09 10:30:00
5:37 AM,28.4,28.4,100,30.10,4.0,Calm,Calm,-,N/A,,Clear,0,2012-12-09 10:37:00
5:51 AM,28.4,28.4,100,30.11,4.0,North,3.5,-,N/A,,Clear,350,2012-12-09 10:51:00
6:51 AM,28.0,28.0,100,30.17,4.0,Calm,Calm,-,N/A,,Clear,0,2012-12-09 11:51:00
7:51 AM,30.0,28.9,96,30.21,7.0,Calm,Calm,-,N/A,,Clear,0,2012-12-09 12:51:00
8:51 AM,37.0,32.0,82,30.25,10.0,NW,5.8,-,N/A,,Clear,320,2012-12-09 13:51:00
9:51 AM,39.0,32.0,76,30.27,10.0,NNW,4.6,-,N/A,,Clear,330,2012-12-09 14:51:00
10:51 AM,41.0,30.9,67,30.26,10.0,NNW,13.8,18.4,N/A,,Clear,330,2012-12-09 15:51:00
11:51 AM,42.1,28.9,60,30.24,10.0,NNW,6.9,-,N/A,,Clear,340,2012-12-09 16:51:00
12:51 PM,42.1,28.0,58,30.25,10.0,NW,6.9,-,N/A,,Clear,320,2012-12-09 17:51:00
1:51 PM,44.1,28.0,53,30.25,10.0,WNW,5.8,-,N/A,,Clear,300,2012-12-09 18:51:00
2:51 PM,44.6,26.6,49,30.25,10.0,NNW,3.5,-,N/A,,Clear,340,2012-12-09 19:51:00
3:51 PM,39.9,25.0,55,30.26,10.0,Calm,Calm,-,N/A,,Clear,0,2012-12-09 20:51:00
4:51 PM,32.0,26.1,79,30.28,10.0,Calm,Calm,-,N/A,,Clear,0,2012-12-09 21:51:00
5:51 PM,30.0,27.0,88,30.30,10.0,Calm,Calm,-,N/A,,Mostly Cloudy,0,2012-12-09 22:51:00
6:51 PM,27.0,26.1,96,30.31,10.0,ENE,3.5,-,N/A,,Partly Cloudy,60,2012-12-09 23:51:00
7:51 PM,30.0,27.0,88,30.28,10.0,ENE,3.5,-,N/A,,Overcast,60,2012-12-10 00:51:00
8:51 PM,30.9,28.9,92,30.27,10.0,Calm,Calm,-,N/A,,Overcast,0,2012-12-10 01:51:00
9:51 PM,32.0,28.9,88,30.24,10.0,Calm,Calm,-,N/A,,Overcast,0,2012-12-10 02:51:00
10:51 PM,32.0,28.9,88,30.21,10.0,Calm,Calm,-,N/A,,Overcast,0,2012-12-10 03:51:00
11:51 PM,32.0,30.9,96,30.20,4.0,Calm,Calm,-,0.02,Rain,Rain,0,2012-12-10 04:51:00